Wind_Speed
56 55 54 54 52 51 48 43 38 36 34 33 33 31 30 30 31 31 28 25 23 21 20 21 23 27 33 38 43 47 54 64 71 77 87 89 86 81 79 77 70 70 69 62 57 53 45 43 47 51 52 48 47 46 43 39 34 31 30 33 35 35 35 36 37 39 40 39 40 42 42 41 40 40 41 41 40 39 39 38 38 39 38 39 39 39 39 39
57 56 55 54 52 49 45 40 36 33 31 31 30 28 26 27 29 27 24 21 19 18 18 18 20 25 30 36 42 47 55 65 71 79 87 88 84 79 78 75 71 70 65 58 58 51 43 43 44 46 51 49 45 44 42 39 34 30 29 32 34 34 35 36 37 38 39 40 40 40 42 43 42 42 42 42 42 41 39 38 40 40 37 38 39 39 38 38
57 57 56 55 52 47 42 37 33 31 29 28 27 24 22 23 25 23 20 17 15 15 14 15 18 23 28 35 41 48 57 65 71 79 85 86 81 77 76 72 71 69 60 59 57 48 43 45 46 44 47 48 42 39 40 38 35 30 29 32 31 30 33 35 37 37 38 40 40 41 41 42 43 43 43 43 43 42 39 39 41 40 38 39 40 38 37 37
58 58 57 54 50 44 39 34 30 29 27 25 24 20 18 18 20 20 16 12 11 10 10 13 18 22 28 35 41 48 57 65 72 79 84 83 77 73 73 71 71 65 58 61 57 49 47 46 46 44 46 47 41 37 37 37 37 33 30 30 29 28 30 33 35 37 37 38 40 41 41 41 41 42 43 43 43 42 40 41 41 40 39 40 41 40 38 37
58 58 57 54 48 41 35 30 28 26 24 22 21 16 12 13 16 14 9 6 6 6 8 13 18 22 28 35 42 50 57 65 73 79 81 78 72 69 69 70 68 61 59 64 58 51 50 48 45 43 45 45 38 35 34 33 35 36 33 30 28 28 29 30 33 35 36 37 38 40 41 41 41 42 42 42 43 41 41 42 41 40 40 41 42 42 40 39
57 57 57 52 44 38 32 27 25 24 21 19 17 11 8 11 12 8 4 3 4 6 10 15 19 23 30 37 45 52 59 66 73 76 74 69 65 66 67 68 66 59 61 66 58 51 51 49 46 43 45 42 36 34 33 32 33 36 36 31 28 28 28 29 30 33 35 36 37 38 40 40 41 41 41 42 42 41 42 43 42 41 42 42 43 43 42 40
55 56 55 49 41 34 28 25 23 20 18 16 14 8 6 9 8 5 5 6 6 9 14 17 23 27 33 41 48 55 62 68 72 71 66 59 57 62 65 64 63 59 63 66 56 51 50 48 46 45 45 41 34 33 36 38 36 36 36 33 31 30 30 29 29 32 33 35 36 37 39 39 40 41 41 42 41 41 43 42 41 41 41 42 42 43 42 40
54 55 53 47 38 30 25 24 21 17 15 14 12 8 3 5 4 4 7 11 10 13 19 23 28 32 38 46 53 59 65 67 67 65 59 54 52 57 62 61 61 58 62 66 55 49 49 46 46 44 43 40 33 33 38 40 37 34 32 31 32 31 31 30 29 30 31 33 35 36 38 38 38 40 41 40 40 41 42 40 40 40 40 40 40 41 41 41
53 54 52 45 35 28 24 22 18 14 13 12 11 8 6 5 5 6 8 13 14 17 25 29 33 39 45 52 57 62 64 63 62 59 54 53 51 52 57 59 60 56 60 64 54 50 48 46 45 40 40 40 34 33 34 34 31 29 28 29 31 31 31 30 29 29 30 32 33 35 36 36 36 38 39 37 37 39 39 39 39 39 39 38 38 39 40 39
53 54 52 42 32 26 23 20 16 11 11 11 9 8 8 8 8 9 11 15 17 22 31 36 38 43 49 55 59 61 62 60 58 55 52 52 51 50 51 54 57 55 58 60 52 50 48 46 44 40 41 39 33 30 28 26 26 26 28 30 31 32 31 30 30 29 30 31 32 33 34 34 35 37 37 34 36 38 37 37 38 39 39 38 37 37 38 38
53 54 51 41 31 26 22 18 13 9 10 10 8 8 6 6 6 9 12 16 21 27 36 42 46 49 54 58 59 59 59 55 53 52 49 50 51 50 48 49 54 54 56 56 52 51 50 47 43 40 42 42 36 31 29 29 27 27 29 31 32 32 32 32 32 32 32 33 33 33 33 34 35 38 36 33 36 39 37 38 39 40 40 40 39 37 38 38
52 53 50 41 31 26 22 17 11 7 8 8 7 5 2 1 1 7 12 16 24 33 39 45 51 55 59 59 57 58 53 46 48 48 45 49 51 50 48 48 50 51 54 56 53 52 50 46 42 41 44 46 41 38 38 35 32 32 32 33 33 32 32 32 31 32 33 34 35 34 34 36 38 39 35 32 37 39 37 39 40 41 42 41 41 39 38 38
51 52 49 42 32 26 22 15 8 5 6 6 4 3 3 4 4 9 14 17 26 37 42 46 52 58 61 56 55 57 48 41 47 49 46 49 51 50 48 47 46 46 49 53 54 53 50 45 41 40 42 41 37 36 39 36 35 35 34 34 33 31 30 29 28 28 30 31 33 32 34 39 39 36 33 33 38 37 37 39 40 42 42 41 41 39 39 39
50 51 49 42 33 25 20 13 5 3 4 3 5 6 4 3 6 13 17 21 31 42 47 49 52 57 56 51 54 53 42 41 49 50 47 48 49 51 49 45 44 43 45 48 51 52 50 47 42 39 38 35 32 32 34 33 34 35 34 33 31 29 29 27 26 27 27 28 29 27 31 40 36 31 31 33 37 36 37 39 39 40 40 40 40 39 40 40
50 51 48 41 32 24 18 10 2 1 1 3 6 8 6 6 10 15 20 26 37 44 49 50 50 50 46 47 53 48 37 40 50 51 49 49 49 52 49 44 41 41 42 42 42 46 49 49 46 42 39 35 33 32 32 31 32 33 33 32 29 29 29 29 28 27 26 26 27 24 28 38 33 26 30 33 35 35 36 38 38 39 39 39 39 39 41 40
50 51 48 41 31 22 15 6 0 2 4 5 7 10 10 9 14 19 23 30 40 45 48 48 48 46 42 45 49 45 36 38 51 56 51 50 51 52 50 43 39 39 41 39 37 39 44 47 46 45 41 38 36 33 32 33 32 31 30 29 29 30 32 33 32 30 29 27 28 25 28 38 35 26 28 32 33 34 36 39 39 39 39 39 39 40 41 38
49 50 48 41 31 22 13 3 3 5 8 8 9 13 12 10 16 23 29 37 45 47 47 47 48 46 44 45 44 43 39 37 49 57 51 50 51 51 49 44 40 39 38 38 38 37 39 41 42 44 42 39 36 31 32 32 31 30 29 29 30 31 33 33 33 32 31 29 30 29 30 40 39 31 28 30 33 34 37 40 40 40 39 39 40 41 39 36
47 48 46 41 32 22 13 4 4 6 8 8 11 15 14 14 19 27 38 46 48 46 46 48 49 46 41 40 37 37 38 35 44 56 54 50 53 52 47 45 44 40 35 34 37 38 38 38 38 40 40 38 34 31 31 31 30 30 30 31 31 30 32 32 30 30 29 28 30 31 32 40 42 38 34 32 32 35 38 41 41 40 39 40 42 41 38 34
44 45 44 40 32 24 16 8 5 5 5 8 14 16 16 19 23 34 46 48 44 43 45 46 46 45 39 36 34 32 33 31 37 51 55 52 54 52 45 43 45 43 38 34 34 35 37 37 37 38 39 38 36 35 36 34 32 32 33 34 32 29 30 30 28 26 26 26 29 31 33 39 44 44 41 37 33 33 39 42 41 40 40 41 42 40 36 33
41 42 42 39 34 28 22 15 9 5 3 9 18 18 17 22 28 39 45 43 41 41 43 43 42 43 40 35 31 26 27 28 30 41 52 54 50 48 46 44 43 43 41 38 35 34 35 36 36 37 37 38 37 38 38 36 34 35 36 37 34 32 31 29 27 26 28 29 32 33 33 38 45 48 46 42 38 34 37 42 42 41 41 41 41 38 34 34
38 39 40 38 35 32 27 22 14 9 6 11 19 19 20 25 32 41 43 42 41 39 40 40 35 33 32 32 29 24 23 24 27 34 44 50 46 44 47 43 40 41 41 40 38 37 36 35 36 36 36 38 38 37 38 38 37 36 37 38 37 36 34 32 30 32 33 35 37 38 36 38 44 48 46 44 42 37 35 38 41 41 42 43 41 38 35 35
34 35 36 35 35 33 30 25 19 12 8 13 19 20 23 27 33 42 43 41 39 38 39 36 28 24 22 24 25 24 22 18 20 26 35 44 45 44 43 38 36 38 40 40 39 39 37 36 37 37 37 38 37 37 39 39 38 36 37 38 38 38 36 35 35 36 37 39 41 41 38 38 42 44 43 43 42 39 34 35 38 40 43 43 41 39 37 35
31 31 32 32 32 32 31 28 23 15 8 12 19 22 25 29 35 41 41 38 36 36 35 29 24 24 22 22 19 17 21 20 18 19 23 33 42 44 42 36 34 37 39 39 38 38 36 34 34 34 36 37 37 39 40 39 38 39 39 41 42 40 39 39 39 39 40 39 41 42 38 38 42 42 41 41 40 38 35 35 37 39 41 41 38 37 36 34
27 27 27 28 29 30 30 29 26 20 11 8 18 24 28 31 35 40 39 34 32 31 28 24 23 25 23 21 16 12 18 23 22 18 15 19 29 39 44 39 36 37 39 38 38 37 35 33 33 34 36 38 40 41 41 41 42 43 43 44 45 44 43 43 43 42 40 38 38 40 38 39 41 41 40 40 39 38 35 35 37 37 37 36 34 33 34 35
24 23 23 24 25 26 27 28 27 25 18 7 14 25 30 33 35 36 33 30 29 27 25 21 20 24 25 22 18 16 17 20 21 20 16 16 20 29 37 40 39 39 37 36 36 37 36 35 36 38 40 42 43 44 44 44 45 47 47 47 48 48 47 46 44 42 39 36 37 38 36 37 40 40 40 39 38 38 36 36 37 36 35 34 33 33 35 37
21 20 18 20 22 22 22 24 25 25 23 15 7 22 31 33 33 33 29 27 28 25 23 20 18 22 23 21 20 19 18 19 21 20 18 18 19 22 29 35 39 38 37 37 36 37 38 38 39 40 42 44 45 46 46 46 47 49 50 50 50 51 49 46 43 41 39 36 37 37 35 35 39 41 40 38 38 38 38 38 38 38 35 32 32 34 36 38
19 17 14 16 18 18 19 20 22 22 21 20 12 11 28 34 33 31 28 27 27 24 22 19 17 20 20 19 20 19 17 18 21 22 22 20 20 21 24 30 34 35 36 38 39 41 40 40 41 42 43 45 47 48 48 48 49 50 51 50 49 49 48 46 43 41 39 37 36 37 34 33 38 43 41 38 38 38 38 38 39 40 38 34 34 35 37 39
18 14 11 11 13 14 15 17 18 18 17 17 17 7 16 30 33 30 28 26 26 25 24 20 17 20 22 20 19 20 20 18 17 21 23 22 21 21 21 25 29 32 34 36 38 40 40 41 43 44 46 46 47 48 48 50 50 51 52 50 48 46 45 45 43 41 39 36 35 36 35 32 35 44 44 38 38 38 37 37 37 38 37 37 37 38 39 40
20 14 10 8 8 9 11 13 13 13 13 12 11 10 4 16 28 32 29 25 25 26 25 23 20 20 22 22 20 20 22 21 18 19 21 22 23 23 22 24 28 30 32 34 36 38 39 41 43 45 46 47 48 50 50 51 52 53 53 51 49 46 44 44 44 42 38 36 37 38 36 32 34 44 47 40 39 39 38 37 36 35 35 36 37 38 40 42
22 17 11 9 6 4 5 8 9 9 10 8 6 5 4 5 16 28 31 27 25 27 27 26 24 23 23 23 21 21 22 22 22 23 24 24 25 26 26 27 27 29 30 33 35 37 39 41 43 45 47 49 51 52 53 53 53 54 54 53 52 49 46 45 44 44 40 38 40 41 38 34 35 45 49 43 41 41 40 39 36 34 34 34 35 37 40 42
22 20 14 11 9 6 4 3 4 4 6 7 7 5 4 4 8 18 27 30 28 27 27 27 26 26 26 25 24 23 23 23 24 25 26 27 27 26 26 26 27 29 31 33 36 38 41 43 46 47 49 50 50 50 52 53 54 55 54 54 54 52 49 47 47 48 44 42 44 43 40 37 38 47 52 48 44 42 41 40 38 36 35 35 35 37 40 42
20 20 18 14 12 11 10 8 6 3 2 4 6 6 6 7 8 10 18 25 29 28 27 26 26 27 28 29 29 28 27 27 27 27 26 28 29 29 29 29 31 33 35 37 39 41 43 44 45 45 46 46 47 48 50 51 52 53 54 53 54 53 51 48 48 48 46 46 46 45 43 41 43 50 54 53 48 43 42 41 40 39 40 40 40 41 42 43
19 19 19 17 15 16 16 15 13 11 9 8 8 8 7 8 8 10 13 18 23 28 29 28 27 28 29 30 32 32 32 32 32 31 30 31 32 33 34 35 36 37 38 39 41 41 41 40 40 41 41 42 42 44 45 47 48 48 49 49 50 51 49 47 48 47 46 46 46 46 45 44 48 54 57 56 51 45 43 42 42 43 45 45 46 45 46 46
20 19 19 19 17 17 19 20 19 18 16 14 13 12 12 10 8 10 13 16 18 23 28 30 30 29 29 29 30 32 34 34 35 35 34 35 36 36 37 38 38 39 38 38 38 38 37 36 36 36 36 36 35 34 34 35 36 38 40 42 45 47 45 44 46 47 47 47 48 49 48 48 54 57 58 57 52 46 43 42 43 45 46 47 48 48 48 48
22 20 18 19 19 18 19 21 23 23 21 20 18 17 16 16 14 13 14 16 18 20 24 27 30 31 31 31 31 31 32 33 34 35 35 36 36 35 37 38 39 38 37 35 33 33 34 34 33 33 33 32 30 29 28 26 26 28 29 32 36 38 38 40 44 47 48 47 49 52 52 53 56 57 58 56 51 47 44 42 44 45 46 47 47 48 49 48
23 22 20 19 19 19 20 20 22 25 25 24 23 22 21 20 20 19 18 19 20 21 22 24 26 29 30 32 32 32 33 33 33 34 34 35 35 35 36 36 36 36 34 32 30 30 31 31 31 30 30 30 28 26 25 24 24 24 25 26 28 30 32 34 38 41 40 37 39 43 45 48 50 52 56 54 49 46 44 43 45 45 46 47 47 47 46 45
26 24 22 20 19 20 20 20 21 22 25 27 26 25 25 24 24 24 23 23 23 23 24 24 25 26 28 30 32 33 34 33 33 33 33 33 33 34 33 33 33 33 32 30 29 29 29 29 28 27 27 27 26 25 24 23 23 23 24 25 26 27 28 28 30 32 32 30 31 34 36 40 45 50 54 52 46 44 43 43 44 44 45 45 45 44 44 44
30 27 24 22 21 20 20 21 21 21 23 25 27 28 28 27 27 26 26 26 26 25 25 25 25 26 27 28 30 32 33 32 32 31 30 31 31 31 31 32 31 31 30 31 31 31 30 29 28 27 26 25 25 24 24 23 22 22 23 24 24 24 25 26 26 28 29 28 29 32 34 38 45 52 53 49 44 43 43 43 43 43 44 43 43 44 44 45
33 31 28 25 23 21 20 21 22 23 23 22 24 27 29 29 29 29 28 28 27 27 27 27 27 27 27 27 28 29 30 31 31 31 31 31 31 31 31 32 32 31 31 32 32 32 30 30 29 28 27 27 26 25 25 24 23 24 24 24 23 22 23 24 24 26 27 27 27 29 31 38 48 51 48 45 43 42 42 43 43 43 44 44 45 46 46 47
36 34 31 28 25 23 22 21 21 22 24 23 22 23 25 28 30 31 31 31 30 30 30 30 30 30 29 29 28 28 29 30 31 32 33 33 32 32 33 33 32 32 32 32 32 32 30 30 30 29 28 28 28 27 27 27 26 26 27 26 25 24 23 23 24 24 25 24 26 27 30 41 50 48 43 43 43 43 43 44 45 45 45 46 46 47 48 50
38 37 35 31 28 27 24 22 22 22 23 23 23 24 24 25 27 29 30 32 33 33 34 34 34 34 33 33 32 31 31 31 32 32 33 33 33 33 34 35 34 34 34 34 34 33 32 32 32 33 32 30 30 30 30 30 30 30 30 30 29 27 27 26 26 27 27 25 27 28 33 45 51 47 45 46 46 46 46 46 47 47 47 47 48 49 50 52
40 39 38 34 32 30 28 26 25 23 22 22 22 24 26 26 26 26 27 29 31 33 35 36 37 38 38 37 36 36 36 36 36 36 36 36 34 34 35 35 35 35 35 35 35 35 35 34 35 36 35 33 33 33 33 33 33 32 32 32 32 31 30 30 29 31 31 30 32 32 37 48 52 48 48 50 49 50 49 47 48 49 49 50 50 51 52 54
42 42 40 37 35 33 31 30 29 26 24 23 22 24 25 27 28 27 27 26 27 29 31 33 36 38 39 40 40 40 40 41 41 40 40 40 39 38 38 37 37 37 37 37 38 37 36 36 37 38 37 36 36 35 36 36 35 34 34 35 35 35 35 33 32 34 33 34 38 35 36 49 55 50 49 51 52 53 51 49 49 50 52 53 53 54 54 53
42 43 42 40 39 37 35 34 33 30 28 26 24 23 24 25 27 28 28 28 28 28 28 29 30 32 34 36 38 40 42 42 43 43 43 43 43 42 41 41 40 40 40 40 40 40 39 39 39 40 40 40 39 39 39 38 37 37 38 38 38 38 38 37 37 37 36 38 43 38 34 44 55 54 51 53 54 54 54 52 52 53 54 55 54 53 51 48
43 43 44 44 42 40 38 38 36 33 32 30 28 25 24 25 26 27 27 28 29 30 30 30 29 29 29 30 31 33 35 36 37 40 42 44 45 44 43 43 43 43 43 43 43 43 42 41 42 43 42 43 44 44 42 41 41 40 41 41 41 41 41 40 40 39 40 43 43 40 38 45 55 57 56 58 58 55 55 55 53 52 52 51 50 48 46 45
44 43 45 47 46 43 42 40 39 37 37 35 31 28 27 27 27 27 27 27 28 28 29 30 31 31 31 30 30 30 30 30 30 32 36 39 40 40 40 40 41 43 44 45 45 45 43 43 45 44 44 45 47 47 44 44 43 42 43 43 43 43 42 42 42 43 45 45 42 45 49 51 53 58 59 61 60 54 52 51 49 48 47 47 46 44 44 44
45 45 47 49 47 46 45 44 43 41 40 37 34 32 32 31 29 29 29 28 28 27 27 29 31 31 32 32 31 31 32 32 32 33 34 34 33 32 32 32 34 37 40 42 43 43 42 44 46 46 46 48 49 49 47 46 46 45 45 45 45 45 45 45 46 47 49 47 43 49 54 49 46 52 55 56 54 50 48 47 46 45 44 43 42 41 41 41
48 48 50 50 48 48 48 48 47 44 42 39 37 36 37 36 34 33 32 31 30 30 29 29 30 30 30 30 30 32 35 36 35 36 35 33 32 32 31 32 32 32 34 34 35 35 35 37 41 43 43 45 47 47 46 46 45 44 44 43 42 42 41 41 42 43 44 42 40 44 47 42 42 49 51 50 50 48 47 46 44 42 41 39 39 39 40 42
49 51 52 51 49 49 51 51 49 46 44 42 39 40 42 42 40 38 37 35 34 33 31 30 32 32 30 29 30 33 36 37 35 35 34 33 34 35 35 36 35 34 34 33 32 33 31 32 35 35 35 37 38 39 38 36 36 35 35 35 35 35 36 37 37 38 40 39 38 42 42 40 46 49 47 47 47 45 44 43 41 41 41 40 40 41 42 44
50 52 54 53 50 50 51 53 52 49 48 45 42 44 47 46 45 45 42 39 38 36 34 35 37 35 31 30 31 35 38 36 33 32 33 33 35 36 37 37 37 36 36 35 35 34 33 33 35 35 33 33 35 35 33 32 32 31 31 32 35 37 36 36 37 40 41 40 40 42 39 40 47 48 43 44 46 44 43 42 41 43 44 44 44 45 46 47
51 53 55 53 51 51 51 52 53 52 50 47 47 50 51 49 50 50 45 42 42 41 40 41 41 38 33 32 34 39 40 37 33 33 33 32 34 36 35 35 36 36 36 36 36 35 36 35 36 37 34 33 37 36 33 33 31 27 27 32 38 38 36 36 38 40 41 40 40 40 38 40 46 48 45 46 47 46 44 43 44 45 46 47 48 49 50 51
56 55 55 54 52 51 51 51 52 52 52 52 53 55 55 53 54 52 48 46 47 47 45 45 44 41 39 38 41 44 42 38 37 37 35 34 35 36 35 35 36 36 36 36 35 35 35 34 35 36 32 31 35 35 32 31 25 20 25 35 38 37 36 38 40 41 42 42 41 41 41 44 48 51 50 48 48 47 46 46 47 48 50 51 51 52 53 53
Wind_Direction
323 325 327 328 327 325 322 318 313 309 306 305 305 306 306 304 302 300 297 287 278 269 256 247 236 224 215 208 204 200 198 196 193 192 190 195 199 197 197 199 203 207 205 202 200 201 206 215 219 222 225 226 228 229 232 236 240 248 250 244 240 241 242 243 244 244 244 244 245 243 242 242 242 244 244 245 248 251 255 258 260 260 261 263 263 265 267 269
326 327 328 328 327 324 322 318 313 310 307 305 305 306 305 300 298 298 295 285 274 266 253 239 227 217 208 202 198 195 194 192 190 189 190 195 198 195 196 199 203 206 204 199 197 200 206 212 215 218 221 224 228 229 232 235 237 246 251 246 243 243 244 244 245 245 245 245 247 247 246 245 245 247 247 247 250 253 256 258 259 260 263 265 266 267 269 270
328 328 329 329 326 324 321 318 313 311 308 305 305 306 306 301 300 302 297 287 275 265 249 228 214 207 200 197 194 190 189 188 187 187 189 195 196 194 195 198 203 205 201 196 196 201 206 211 215 217 219 222 228 231 233 234 233 243 251 247 246 247 247 246 246 247 247 246 247 249 249 249 249 250 250 251 252 254 257 258 259 261 263 265 266 267 269 270
329 330 330 329 326 324 321 318 313 311 310 305 306 311 313 309 305 303 298 287 273 258 233 208 199 195 192 192 189 186 185 184 184 185 189 194 194 193 194 199 203 202 198 194 196 203 208 213 216 218 220 221 228 233 234 236 235 240 251 252 249 250 251 250 248 247 248 248 248 250 251 251 252 252 253 254 254 256 258 258 260 263 264 264 266 267 268 269
331 331 330 328 326 323 320 317 313 312 311 305 309 316 319 317 310 302 291 276 259 229 195 187 185 185 186 186 184 181 180 181 182 184 188 192 193 193 195 200 201 199 196 195 199 206 210 214 215 217 220 221 229 234 236 242 240 238 246 254 252 251 253 253 250 248 248 249 249 250 251 252 253 254 254 255 256 257 259 260 261 264 264 265 266 268 268 268
333 332 330 328 326 323 320 317 314 314 310 304 309 313 317 323 314 293 256 215 219 182 166 173 174 177 179 179 178 176 176 178 181 184 186 190 193 195 196 200 201 198 195 196 202 209 210 213 214 216 220 222 231 239 244 247 246 241 243 251 253 253 256 255 253 249 248 248 249 250 251 251 252 254 254 256 257 258 260 262 263 264 265 266 267 268 268 267
334 333 331 329 326 323 319 316 315 314 306 300 303 300 324 331 317 278 203 167 176 170 156 162 165 168 173 172 171 171 173 176 179 181 182 186 194 197 197 200 202 200 197 197 204 210 210 213 217 220 222 224 231 245 249 248 247 242 242 248 252 256 257 256 254 251 249 248 248 249 250 251 252 253 254 256 258 259 260 262 264 265 265 266 266 267 267 266
336 336 334 331 327 324 318 314 315 313 299 293 295 285 303 327 298 253 206 171 169 168 155 157 160 162 166 166 167 169 171 174 177 177 177 185 194 197 199 201 203 204 201 199 205 209 211 216 219 223 224 224 234 246 244 241 242 240 242 247 250 255 255 253 252 250 249 248 249 250 250 252 253 255 255 256 258 259 261 263 264 265 266 267 266 266 266 266
339 340 337 333 329 324 316 315 317 310 292 285 286 272 262 268 228 221 213 179 168 164 156 155 158 160 163 164 166 167 169 171 173 174 179 188 193 196 200 203 205 206 203 202 207 210 213 218 219 221 221 224 237 240 234 234 237 240 243 246 247 251 251 251 251 250 250 250 250 251 252 253 254 256 256 257 260 260 261 263 264 265 266 266 266 265 265 265
342 343 340 336 330 324 317 318 320 307 289 283 278 264 261 271 240 209 202 182 167 162 157 154 156 159 161 162 164 165 166 168 171 176 184 191 195 196 199 203 206 207 204 204 208 211 214 218 219 220 218 222 233 231 230 235 239 244 244 245 248 250 253 255 256 256 256 255 255 255 256 256 257 258 257 259 261 261 262 263 264 265 264 264 264 263 262 263
345 346 343 338 332 326 321 323 323 301 285 281 269 260 264 290 264 213 196 181 167 161 159 157 156 159 160 161 162 163 165 168 176 181 188 193 195 196 196 200 204 206 206 206 210 211 214 217 221 224 220 222 230 234 241 244 246 251 250 251 253 255 258 261 263 263 262 262 261 261 261 260 259 259 259 262 263 263 264 264 264 264 263 262 261 261 261 263
347 347 345 342 336 330 327 328 325 296 282 280 263 253 246 51 244 202 188 178 167 160 159 159 159 159 160 159 162 164 165 172 182 183 187 193 194 194 195 198 204 207 208 209 211 212 215 218 222 225 221 222 231 240 246 249 251 254 256 257 256 258 261 265 268 268 266 265 263 264 265 262 261 262 263 264 264 264 265 265 264 263 263 261 259 259 261 264
349 350 348 344 339 334 331 331 325 294 284 283 234 175 105 93 146 178 171 171 166 159 159 160 161 160 158 160 164 166 168 177 184 182 184 191 193 194 196 199 203 207 210 212 214 215 217 219 220 222 221 224 233 240 243 247 250 252 257 257 256 260 262 266 271 271 267 264 263 263 264 263 263 266 266 264 264 266 266 265 263 263 263 261 258 258 260 264
349 351 350 346 342 337 335 335 326 294 287 262 180 149 111 114 158 168 166 165 164 161 159 159 160 159 158 163 167 168 177 186 184 182 184 188 191 193 195 197 200 202 206 210 214 217 218 218 219 222 223 229 238 241 242 245 248 252 256 256 257 261 262 267 272 271 267 263 262 260 261 263 263 266 266 264 265 266 265 265 263 262 262 260 257 257 260 264
350 353 352 349 344 339 340 340 332 291 256 185 162 147 138 157 158 161 164 161 163 162 159 158 159 160 162 170 171 171 184 194 188 184 186 189 191 193 193 194 197 201 203 207 212 216 218 218 220 224 227 234 240 243 246 248 250 253 254 254 258 262 264 268 269 267 264 263 262 258 261 267 266 264 266 267 266 266 264 262 260 259 259 259 257 258 261 264
351 354 355 352 347 343 345 345 111 132 142 133 140 141 137 151 157 159 160 158 160 159 157 158 162 166 173 177 178 180 188 196 194 188 188 190 192 193 194 194 197 203 206 208 212 215 218 219 221 226 231 238 241 245 250 250 250 249 250 254 258 264 267 270 268 264 263 265 265 263 266 271 272 268 270 272 268 264 262 259 257 256 257 259 259 259 262 264
353 356 357 356 353 351 350 3 134 142 147 142 150 147 135 150 162 159 156 155 156 156 158 165 169 174 179 179 183 192 197 199 195 192 192 194 194 196 196 196 198 203 208 212 216 219 221 221 223 229 233 239 242 247 249 246 245 246 251 257 261 267 270 270 269 264 264 267 269 269 270 273 275 274 273 274 270 264 259 256 255 254 255 258 260 262 263 265
355 358 0 1 1 1 3 35 127 151 165 163 155 146 139 153 161 157 154 153 155 159 166 173 177 177 176 178 187 198 204 207 202 197 195 197 201 199 199 201 201 203 207 213 219 223 225 225 228 231 233 238 241 244 244 242 246 250 256 261 264 269 269 268 268 266 267 271 272 272 271 273 277 277 274 273 271 265 260 256 254 254 255 257 260 263 265 267
356 359 3 6 10 15 21 39 87 133 171 162 148 147 150 156 160 158 155 156 160 168 174 178 184 181 173 176 189 198 204 211 212 203 197 202 207 203 205 209 207 207 210 216 222 225 228 230 234 236 237 240 240 240 242 245 250 254 260 262 264 270 272 270 270 268 270 273 274 273 273 275 278 277 275 274 272 265 260 258 255 254 256 257 260 264 266 268
356 360 4 10 17 25 33 40 55 79 127 154 152 153 156 158 160 159 159 162 167 172 177 182 188 187 183 184 189 199 207 210 213 206 203 207 210 209 213 219 219 217 217 220 227 231 232 234 237 238 239 239 238 239 243 248 252 256 260 261 262 271 276 275 271 268 271 274 275 275 277 279 279 278 277 276 275 266 258 259 259 257 258 259 261 264 266 267
356 360 5 12 20 29 36 41 46 54 87 149 159 158 156 161 163 162 165 170 172 175 180 185 188 187 192 198 200 207 213 218 218 212 209 209 210 214 217 222 228 227 224 225 231 235 235 237 239 239 239 238 238 242 246 250 253 256 259 260 264 272 276 276 273 272 275 277 279 279 282 284 281 279 278 276 274 269 259 257 261 262 262 263 264 265 265 266
355 359 6 15 23 30 35 40 44 51 91 151 165 162 157 163 168 168 171 173 177 182 184 189 188 175 178 194 206 210 206 216 221 215 214 210 210 214 215 220 226 223 224 227 231 234 236 238 239 237 238 238 241 248 251 252 253 256 259 262 267 272 275 276 275 275 278 279 280 281 283 286 284 279 278 275 272 271 264 257 260 263 263 264 265 265 265 268
353 357 5 16 26 32 36 40 43 47 81 151 167 165 160 165 171 172 173 175 181 184 184 189 183 164 164 182 204 213 197 203 210 206 213 213 214 215 214 218 221 218 222 226 230 232 235 239 238 236 239 243 249 252 251 251 254 257 261 264 268 271 275 277 276 278 279 277 279 281 281 285 284 280 278 276 271 270 266 260 261 261 261 263 265 266 268 272
351 355 2 14 26 33 37 41 44 46 57 139 169 168 164 167 173 175 177 180 183 183 184 192 187 173 169 177 197 208 191 197 202 195 203 213 218 220 218 219 220 220 224 229 234 235 235 238 241 244 246 250 253 252 250 253 257 261 263 267 270 272 275 277 277 277 275 274 278 281 283 284 282 279 278 275 272 269 265 263 264 263 263 265 265 266 268 271
346 352 1 12 24 32 37 41 45 47 48 82 170 173 168 170 175 177 180 184 186 187 191 199 200 192 183 179 192 204 195 197 200 197 205 214 217 221 222 223 222 222 226 231 237 241 240 239 241 245 248 250 253 253 255 258 261 264 266 269 272 273 275 275 275 274 272 274 277 280 283 284 281 279 277 273 270 267 263 264 266 266 268 268 265 265 266 267
341 349 2 13 21 30 35 40 44 47 47 50 138 179 176 174 177 180 182 186 188 190 194 203 210 201 193 187 193 202 202 205 209 213 220 224 225 223 222 224 224 226 229 232 236 243 245 243 244 246 248 252 255 257 259 261 264 267 268 270 271 273 273 272 271 270 269 273 275 277 281 283 282 280 276 272 268 264 262 263 265 267 268 266 265 266 267 268
338 343 1 17 23 30 37 41 44 47 47 45 56 171 184 181 179 181 183 186 189 192 193 200 210 209 206 200 196 200 205 212 219 223 225 227 232 232 226 224 227 231 236 238 240 244 247 248 251 253 255 257 260 261 261 263 264 267 269 270 270 270 269 267 267 267 267 269 272 275 279 282 285 284 279 274 269 264 261 261 264 267 266 264 264 265 267 269
336 334 347 12 26 34 39 47 52 52 51 47 47 75 183 190 187 186 186 188 191 196 196 197 206 213 215 214 211 212 211 216 224 227 230 232 235 238 233 227 228 233 238 242 245 248 250 252 255 257 259 261 263 264 264 265 266 267 268 268 268 268 266 263 263 264 264 266 268 273 277 281 286 285 283 278 271 266 261 261 263 265 266 266 266 267 269 271
332 327 321 339 12 31 39 51 62 65 60 52 49 53 121 195 198 196 195 196 201 204 205 206 212 215 215 219 225 224 219 221 231 236 239 240 242 244 242 236 234 237 241 245 248 250 252 254 256 258 260 263 265 267 268 268 268 268 268 268 267 267 265 262 261 261 262 263 265 269 274 279 284 283 283 281 274 267 263 264 265 265 267 269 270 272 274 275
328 324 308 301 314 346 23 44 60 81 88 80 75 75 83 187 205 205 205 208 212 213 213 214 220 222 219 221 227 231 230 232 238 245 248 248 247 245 243 243 243 244 248 251 254 256 258 259 261 263 265 267 268 268 267 266 266 266 267 267 265 265 265 262 259 260 261 262 263 268 272 276 280 280 282 283 276 268 264 263 265 268 270 273 274 276 277 278
321 321 311 290 275 270 286 332 19 83 117 116 113 123 150 183 206 212 213 216 219 221 222 223 227 229 228 228 232 237 241 244 247 250 251 252 251 249 249 250 251 253 256 259 263 266 267 267 267 268 268 268 268 267 265 265 265 265 266 264 262 261 263 262 260 259 261 263 264 267 271 274 276 278 282 283 277 270 265 262 264 268 271 274 277 279 279 279
313 316 312 296 270 255 254 266 275 268 224 189 167 158 164 183 205 222 222 225 226 226 228 231 234 236 237 238 241 245 248 251 253 252 252 253 253 253 255 255 256 260 263 266 269 271 270 269 268 268 267 267 267 267 267 266 266 265 264 262 259 258 260 262 262 261 263 265 265 267 269 272 273 275 280 282 277 271 267 264 264 268 271 274 277 279 281 282
307 308 308 303 283 262 253 256 260 261 261 252 229 212 197 184 200 221 228 233 234 231 232 235 238 241 245 247 248 250 252 252 253 254 256 257 256 256 257 259 261 265 268 270 272 272 271 269 268 268 268 268 268 268 268 266 265 263 263 261 257 257 259 260 262 264 265 267 267 266 268 270 271 273 277 279 277 271 268 267 267 269 272 273 275 278 281 283
303 301 302 302 295 278 262 257 259 259 260 260 252 239 227 216 212 223 230 235 237 234 234 236 240 244 248 250 251 253 254 253 255 257 259 260 260 260 262 263 265 267 269 271 272 272 271 269 269 269 269 269 269 270 270 267 265 263 263 261 259 260 261 261 263 265 266 268 268 267 266 267 270 272 273 274 274 270 269 270 269 270 271 272 275 277 280 283
298 298 296 296 295 289 276 265 261 261 260 259 256 250 241 232 227 229 234 237 238 236 235 236 240 244 248 249 249 251 254 255 258 260 261 263 265 265 265 264 264 264 264 266 268 269 268 267 267 267 268 270 271 272 274 274 273 270 268 266 264 265 265 265 265 266 268 270 269 267 265 264 266 268 268 270 270 269 270 271 269 269 270 272 274 277 280 283
292 293 292 291 290 290 285 275 266 262 261 259 258 255 250 242 237 236 236 240 242 241 240 241 242 243 245 246 247 249 251 254 256 259 260 262 264 264 264 263 260 258 258 260 265 267 266 266 266 266 266 267 268 269 272 274 274 273 271 269 267 266 264 263 263 264 266 267 266 264 262 261 261 262 263 266 267 269 271 271 270 270 271 273 276 279 282 284
287 288 288 288 286 286 286 282 275 267 262 259 258 257 255 251 247 244 242 244 248 248 247 247 247 247 246 246 248 250 251 251 253 255 257 258 260 261 262 261 259 257 257 260 267 269 268 267 266 265 265 265 265 265 265 266 267 268 268 266 265 264 263 262 261 262 263 263 263 262 261 260 260 259 261 264 266 269 270 269 270 272 273 276 279 281 283 284
283 284 284 284 284 283 282 281 280 276 268 263 259 257 256 255 253 251 249 249 250 251 250 249 249 249 249 249 250 250 250 250 252 253 255 257 258 259 260 261 261 262 262 265 268 269 269 270 269 268 268 268 267 267 267 268 269 268 267 266 265 265 264 263 261 261 261 260 260 261 262 261 258 257 260 264 267 269 268 269 271 273 275 278 279 281 283 284
279 280 280 280 280 280 279 279 278 277 276 272 265 259 256 255 254 253 252 251 251 249 248 248 247 248 250 251 251 251 251 252 254 255 256 257 258 259 259 260 262 263 264 265 266 267 268 269 270 270 271 271 271 272 273 273 271 271 271 270 269 268 266 264 262 260 259 259 257 257 258 258 256 257 262 267 269 268 269 271 272 274 276 278 280 282 284 285
274 276 277 278 277 276 276 276 276 276 276 274 271 267 262 257 254 253 252 252 251 250 249 248 248 248 249 251 252 252 253 253 255 256 257 258 258 259 259 259 260 261 262 263 263 265 266 267 269 269 269 269 271 272 272 270 270 270 270 270 271 270 269 269 267 264 263 263 261 257 254 255 258 263 268 271 271 270 270 272 273 275 278 280 283 285 286 287
269 272 274 275 274 274 273 272 272 272 274 274 272 270 267 263 260 258 256 254 253 252 251 250 250 250 251 252 253 254 254 254 254 255 256 257 257 258 258 258 259 259 260 261 261 263 264 265 266 266 266 267 268 268 267 268 268 268 268 270 271 271 270 269 269 269 269 267 264 259 256 258 263 269 272 271 271 272 273 274 277 279 282 283 284 285 286 286
265 268 270 271 271 272 271 269 268 269 270 271 271 269 268 268 267 264 261 258 257 255 254 253 252 252 253 254 254 256 256 256 256 255 256 256 256 256 257 258 259 259 259 260 260 260 261 262 263 264 265 264 264 265 266 267 267 268 269 270 271 270 268 267 268 269 269 267 264 261 262 265 266 268 271 272 273 274 276 278 281 283 284 284 284 284 284 284
261 264 267 268 268 269 269 267 268 268 266 266 268 269 270 270 269 267 264 262 261 259 257 256 254 254 254 254 254 255 256 257 257 257 257 257 256 256 256 257 258 258 259 259 259 259 260 261 261 262 263 263 263 263 263 264 266 268 269 268 269 269 268 269 269 268 270 270 265 263 269 274 271 268 269 273 274 276 278 280 282 283 283 284 284 284 284 284
258 260 263 264 265 266 265 265 268 268 266 265 264 266 269 270 269 269 268 266 264 262 261 260 259 257 256 256 255 255 255 256 257 258 257 257 257 257 257 258 258 258 258 258 259 260 260 260 261 262 263 264 263 261 261 264 265 266 265 266 267 269 271 272 272 272 272 268 266 269 273 273 274 275 275 274 275 277 280 282 283 282 282 283 283 284 284 286
256 257 260 261 262 262 262 263 266 266 265 265 264 264 265 267 268 270 270 269 268 266 266 265 263 261 259 258 257 257 257 258 259 260 259 258 258 258 259 259 260 260 260 260 260 261 261 262 262 262 264 265 264 264 265 265 265 264 265 266 268 270 271 272 273 273 270 266 269 275 268 262 269 276 278 276 276 278 281 282 282 281 281 282 283 284 286 286
257 256 257 257 258 260 260 261 263 263 264 266 266 265 264 264 266 268 268 269 269 270 270 269 266 263 262 261 261 262 261 259 259 260 259 259 260 261 262 262 262 262 261 261 262 263 264 264 263 264 265 266 266 268 269 268 268 268 268 268 270 270 271 272 271 270 267 266 269 270 264 262 268 273 274 275 277 279 280 280 280 281 282 283 285 287 288 288
257 256 255 254 256 257 258 259 259 261 264 267 267 265 264 263 263 264 265 266 268 270 270 270 268 266 265 266 266 265 263 260 259 259 261 264 265 265 264 262 260 260 261 261 262 263 263 264 264 264 264 265 266 268 269 270 270 270 270 271 271 271 271 271 269 268 267 266 266 265 265 267 269 271 272 274 277 280 280 281 282 284 285 287 288 289 289 290
257 256 255 253 253 254 256 256 258 261 263 264 263 263 263 262 261 261 263 265 266 266 268 271 271 269 268 269 269 267 264 262 262 263 266 270 269 267 265 262 261 261 262 263 264 264 263 263 263 263 264 265 266 267 269 270 271 273 273 273 273 272 271 268 267 267 266 266 264 264 267 270 268 269 273 276 279 281 282 283 286 287 287 288 289 289 289 290
257 256 256 254 251 251 253 255 257 259 259 260 261 261 261 261 261 261 262 264 265 266 267 269 270 269 269 271 271 269 267 266 267 270 271 271 269 267 265 265 265 265 265 264 264 264 263 263 263 264 265 265 266 267 269 271 273 274 275 276 276 273 269 266 266 266 265 265 263 263 267 269 267 268 272 277 278 279 282 286 288 287 286 286 286 286 287 288
257 256 255 255 253 251 252 254 255 257 258 259 260 259 258 260 261 261 262 264 265 265 265 264 265 267 269 271 272 270 268 269 270 272 272 270 269 268 268 269 269 267 267 266 265 265 264 263 264 265 265 267 269 268 268 270 271 273 279 281 276 270 267 267 267 266 266 265 264 267 270 269 268 270 272 274 276 279 283 286 285 284 284 285 286 287 288 291
256 256 255 255 254 253 252 253 254 255 257 258 257 256 256 257 259 260 262 263 263 262 261 261 264 267 267 267 267 266 267 270 271 270 271 271 271 271 271 271 271 271 270 268 267 265 263 262 264 264 265 268 269 269 269 269 271 279 283 275 269 267 269 268 267 268 269 269 270 273 274 270 270 272 273 273 277 282 284 283 281 281 283 284 286 290 293 295
255 255 255 254 254 254 255 254 254 254 255 256 255 255 256 256 257 259 261 261 261 260 260 262 264 266 265 264 262 263 266 270 270 270 271 270 269 270 271 271 272 272 271 270 269 267 265 263 262 263 264 265 268 270 269 270 277 284 274 266 267 271 272 271 272 274 275 275 275 275 273 271 270 272 275 279 282 283 282 281 279 279 281 283 288 293 296 296
Height
10646 10641 10635 10630 10625 10619 10614 10610 10606 10603 10600 10596 10592 10590 10588 10585 10582 10580 10577 10575 10574 10573 10572 10573 10574 10575 10577 10581 10586 10592 10599 10608 10620 10632 10643 10651 10658 10667 10677 10685 10693 10700 10708 10717 10724 10729 10734 10737 10738 10738 10740 10744 10748 10751 10754 10756 10758 10759 10760 10761 10762 10763 10766 10768 10769 10770 10772 10775 10776 10777 10779 10781 10782 10783 10784 10785 10786 10787 10787 10789 10788 10788 10791 10792 10792 10793 10793 10793
10641 10636 10631 10626 10621 10616 10611 10607 10604 10600 10597 10594 10591 10589 10587 10584 10580 10578 10575 10573 10572 10571 10571 10571 10572 10573 10576 10580 10585 10591 10598 10608 10619 10631 10642 10650 10657 10666 10675 10685 10692 10699 10708 10716 10722 10727 10731 10733 10734 10734 10737 10743 10746 10750 10752 10754 10756 10757 10758 10758 10760 10762 10764 10765 10766 10768 10770 10772 10773 10774 10776 10778 10779 10780 10781 10782 10783 10783 10785 10786 10784 10785 10789 10788 10788 10789 10790 10790
10637 10632 10627 10622 10617 10612 10608 10604 10601 10598 10595 10592 10590 10588 10586 10583 10579 10576 10574 10572 10570 10570 10570 10570 10571 10573 10577 10581 10585 10591 10599 10609 10620 10631 10642 10649 10657 10665 10675 10684 10691 10699 10708 10715 10721 10725 10728 10728 10730 10732 10736 10741 10745 10748 10749 10751 10753 10755 10756 10756 10758 10761 10762 10762 10764 10765 10767 10769 10770 10771 10773 10775 10776 10776 10777 10779 10779 10780 10783 10782 10780 10782 10786 10785 10784 10786 10787 10787
10634 10628 10623 10618 10613 10608 10605 10602 10598 10596 10593 10590 10589 10587 10585 10581 10578 10575 10573 10571 10570 10570 10570 10570 10571 10574 10577 10582 10587 10593 10601 10611 10621 10632 10641 10649 10657 10667 10676 10683 10690 10699 10707 10713 10718 10721 10723 10725 10727 10731 10735 10740 10743 10745 10747 10749 10751 10752 10753 10754 10757 10758 10758 10760 10761 10763 10764 10766 10768 10769 10770 10772 10773 10773 10774 10775 10775 10778 10779 10777 10777 10780 10782 10781 10781 10782 10784 10784
10632 10626 10620 10614 10610 10606 10602 10599 10596 10594 10591 10589 10587 10586 10583 10580 10578 10575 10574 10572 10571 10571 10571 10572 10573 10576 10579 10584 10590 10596 10605 10615 10624 10633 10642 10651 10660 10668 10676 10683 10690 10699 10705 10710 10714 10717 10720 10723 10726 10730 10734 10738 10741 10743 10745 10747 10748 10750 10751 10753 10755 10755 10756 10758 10759 10760 10762 10763 10765 10766 10767 10768 10769 10770 10771 10771 10772 10775 10775 10773 10776 10778 10778 10778 10778 10779 10780 10781
10630 10623 10617 10611 10607 10603 10600 10597 10595 10592 10590 10588 10587 10585 10582 10580 10577 10576 10575 10573 10573 10572 10573 10574 10575 10578 10582 10587 10593 10600 10609 10618 10627 10635 10645 10655 10663 10669 10676 10683 10690 10697 10702 10707 10712 10714 10717 10721 10725 10729 10732 10736 10739 10741 10743 10745 10746 10747 10749 10751 10752 10753 10754 10755 10756 10757 10758 10760 10761 10763 10764 10765 10766 10766 10767 10767 10769 10772 10770 10770 10773 10774 10774 10775 10774 10775 10776 10777
10628 10621 10614 10609 10604 10600 10597 10595 10593 10591 10589 10587 10586 10584 10583 10580 10578 10577 10576 10575 10575 10574 10575 10576 10578 10581 10585 10590 10597 10605 10613 10622 10631 10640 10651 10659 10664 10670 10677 10684 10690 10695 10700 10705 10709 10712 10716 10720 10724 10727 10730 10734 10737 10739 10740 10742 10743 10744 10746 10748 10750 10750 10752 10753 10754 10754 10756 10757 10758 10759 10760 10761 10763 10763 10763 10764 10766 10767 10767 10768 10770 10770 10771 10771 10771 10771 10771 10773
10625 10619 10612 10606 10602 10598 10596 10593 10592 10590 10588 10587 10585 10584 10583 10581 10579 10578 10577 10577 10577 10577 10578 10579 10581 10585 10589 10594 10601 10608 10617 10627 10637 10646 10655 10661 10665 10672 10678 10684 10689 10694 10699 10703 10706 10711 10715 10719 10722 10726 10729 10732 10735 10737 10738 10739 10740 10741 10744 10746 10746 10747 10749 10750 10750 10751 10753 10754 10755 10756 10757 10759 10760 10759 10760 10762 10763 10762 10763 10765 10766 10766 10767 10768 10767 10767 10767 10768
10623 10617 10610 10604 10600 10597 10594 10592 10591 10589 10588 10586 10585 10584 10583 10582 10580 10579 10579 10578 10579 10580 10581 10582 10585 10589 10593 10599 10605 10614 10623 10632 10642 10651 10657 10661 10667 10673 10678 10683 10688 10693 10698 10702 10706 10710 10714 10718 10721 10725 10727 10731 10733 10734 10735 10736 10738 10739 10741 10743 10743 10745 10746 10747 10748 10749 10750 10751 10753 10753 10754 10756 10756 10755 10756 10759 10759 10758 10760 10762 10762 10762 10763 10763 10763 10763 10764 10764
10621 10615 10608 10603 10599 10596 10593 10591 10589 10588 10587 10586 10585 10584 10584 10583 10582 10580 10580 10581 10581 10583 10584 10586 10590 10595 10599 10605 10612 10620 10628 10637 10645 10652 10657 10662 10667 10673 10678 10683 10688 10692 10697 10701 10705 10709 10713 10717 10720 10723 10725 10728 10730 10731 10732 10734 10735 10737 10739 10739 10741 10742 10743 10745 10746 10747 10748 10749 10750 10750 10751 10753 10752 10750 10753 10756 10755 10754 10756 10758 10758 10759 10759 10759 10760 10760 10760 10760
10620 10614 10608 10602 10598 10595 10592 10590 10589 10588 10587 10586 10586 10585 10584 10584 10583 10582 10582 10583 10584 10586 10588 10589 10592 10599 10605 10611 10618 10627 10633 10640 10646 10652 10657 10662 10667 10672 10677 10682 10686 10691 10695 10700 10704 10708 10712 10716 10719 10721 10723 10725 10727 10729 10730 10731 10733 10735 10736 10737 10739 10740 10741 10742 10743 10745 10746 10746 10747 10748 10749 10750 10747 10746 10750 10754 10751 10750 10753 10754 10754 10754 10755 10756 10756 10756 10756 10757
10620 10613 10607 10602 10597 10594 10592 10590 10588 10588 10587 10587 10587 10586 10586 10585 10585 10584 10585 10586 10587 10590 10593 10595 10596 10601 10608 10615 10621 10629 10637 10643 10647 10652 10657 10662 10667 10672 10677 10682 10686 10690 10694 10698 10702 10707 10711 10714 10717 10719 10721 10723 10725 10727 10727 10729 10731 10732 10734 10735 10736 10738 10739 10740 10741 10743 10743 10743 10744 10746 10746 10744 10742 10743 10749 10750 10746 10746 10749 10749 10750 10750 10751 10752 10752 10752 10752 10753
10621 10614 10607 10601 10597 10593 10591 10590 10588 10588 10588 10587 10588 10588 10587 10587 10586 10586 10587 10590 10592 10594 10598 10602 10604 10606 10611 10619 10625 10632 10639 10643 10647 10652 10657 10661 10666 10671 10677 10682 10686 10690 10694 10698 10701 10705 10709 10712 10715 10716 10718 10720 10723 10724 10725 10727 10728 10730 10731 10732 10734 10735 10736 10737 10739 10739 10739 10740 10740 10743 10742 10737 10738 10742 10746 10745 10741 10743 10745 10744 10745 10745 10746 10748 10748 10748 10748 10749
10621 10615 10608 10602 10597 10593 10591 10589 10589 10588 10588 10589 10589 10589 10589 10589 10589 10588 10590 10592 10595 10597 10601 10606 10611 10614 10618 10623 10629 10635 10640 10643 10647 10653 10657 10661 10666 10671 10677 10682 10686 10690 10693 10697 10700 10704 10707 10710 10711 10713 10715 10718 10720 10721 10722 10724 10726 10728 10730 10730 10732 10733 10733 10735 10736 10736 10736 10736 10736 10740 10737 10730 10735 10740 10740 10740 10738 10739 10740 10740 10741 10741 10743 10744 10744 10744 10744 10744
10622 10616 10609 10603 10597 10593 10591 10590 10589 10589 10590 10590 10591 10591 10591 10591 10591 10591 10593 10595 10598 10601 10606 10611 10617 10623 10627 10629 10632 10637 10641 10644 10649 10653 10657 10662 10667 10672 10677 10681 10686 10689 10692 10696 10700 10703 10706 10708 10709 10711 10713 10715 10717 10719 10720 10723 10724 10726 10727 10728 10729 10730 10731 10731 10732 10733 10733 10733 10733 10736 10733 10726 10731 10736 10735 10735 10735 10736 10736 10735 10737 10737 10739 10740 10740 10741 10739 10740
10622 10616 10610 10604 10599 10594 10592 10590 10591 10591 10592 10592 10593 10593 10593 10593 10593 10594 10596 10598 10602 10607 10612 10618 10622 10626 10630 10633 10636 10638 10641 10645 10649 10654 10659 10663 10667 10672 10676 10681 10685 10688 10691 10695 10698 10701 10703 10706 10708 10709 10711 10713 10716 10718 10719 10721 10722 10724 10725 10725 10726 10726 10727 10728 10729 10730 10730 10731 10730 10732 10730 10723 10726 10732 10732 10731 10731 10732 10732 10731 10732 10734 10735 10736 10736 10736 10736 10736
10623 10617 10611 10605 10600 10596 10593 10592 10592 10593 10594 10594 10595 10595 10596 10596 10597 10597 10599 10602 10606 10611 10617 10620 10623 10626 10630 10634 10638 10640 10642 10645 10650 10656 10661 10665 10669 10672 10676 10680 10684 10687 10691 10694 10696 10699 10701 10703 10706 10707 10709 10711 10714 10717 10717 10719 10720 10721 10722 10722 10723 10723 10724 10724 10725 10726 10727 10727 10727 10728 10727 10721 10721 10727 10729 10728 10728 10728 10728 10727 10728 10730 10732 10732 10732 10732 10732 10733
10625 10620 10614 10608 10602 10598 10595 10594 10594 10595 10596 10596 10597 10598 10599 10599 10601 10601 10603 10606 10610 10614 10618 10621 10624 10628 10633 10638 10641 10643 10645 10649 10652 10656 10661 10666 10669 10672 10676 10679 10682 10686 10689 10692 10695 10697 10699 10701 10703 10705 10708 10710 10713 10714 10715 10716 10717 10718 10719 10719 10720 10720 10720 10721 10722 10723 10723 10724 10723 10724 10724 10719 10717 10721 10723 10724 10725 10725 10723 10722 10724 10726 10728 10728 10728 10728 10729 10729
10628 10623 10617 10611 10606 10601 10598 10596 10596 10597 10598 10599 10600 10601 10601 10602 10604 10605 10607 10610 10613 10617 10620 10624 10627 10631 10635 10640 10643 10646 10649 10651 10654 10658 10663 10665 10668 10672 10676 10679 10682 10685 10688 10691 10694 10696 10698 10700 10701 10703 10706 10708 10710 10711 10712 10713 10714 10715 10716 10716 10716 10717 10717 10717 10719 10720 10720 10721 10720 10721 10722 10718 10713 10714 10716 10719 10722 10723 10719 10718 10720 10722 10723 10724 10724 10724 10725 10725
10630 10626 10620 10615 10610 10605 10602 10600 10600 10600 10601 10602 10603 10604 10605 10606 10607 10610 10612 10614 10617 10620 10624 10627 10630 10634 10637 10640 10643 10647 10650 10653 10655 10660 10663 10665 10669 10674 10676 10678 10681 10685 10687 10690 10692 10694 10697 10698 10700 10702 10704 10705 10706 10707 10709 10709 10711 10712 10712 10712 10713 10713 10713 10715 10716 10716 10716 10718 10717 10717 10719 10716 10709 10707 10710 10714 10716 10719 10717 10715 10716 10717 10719 10720 10720 10721 10721 10722
10633 10628 10624 10619 10614 10610 10607 10605 10604 10603 10604 10605 10606 10607 10608 10610 10612 10614 10615 10618 10620 10623 10627 10630 10634 10638 10641 10643 10646 10648 10651 10654 10657 10660 10663 10666 10670 10673 10675 10678 10681 10684 10687 10689 10691 10693 10695 10696 10697 10700 10701 10702 10703 10704 10706 10706 10707 10708 10709 10709 10710 10710 10710 10712 10713 10712 10713 10714 10713 10713 10715 10712 10705 10702 10704 10708 10710 10713 10714 10713 10713 10714 10715 10715 10716 10717 10717 10717
10635 10632 10628 10623 10618 10615 10612 10609 10608 10607 10607 10607 10609 10610 10612 10613 10615 10617 10619 10621 10624 10627 10630 10633 10637 10641 10644 10646 10648 10650 10653 10655 10657 10660 10663 10666 10669 10671 10675 10678 10680 10683 10685 10687 10689 10690 10692 10693 10695 10697 10698 10699 10700 10701 10702 10703 10704 10705 10705 10706 10706 10706 10707 10708 10709 10709 10709 10710 10709 10709 10711 10708 10702 10700 10700 10702 10704 10706 10709 10711 10711 10711 10711 10711 10712 10712 10712 10713
10638 10635 10632 10628 10623 10620 10617 10614 10612 10611 10610 10611 10612 10614 10616 10617 10619 10621 10623 10625 10628 10631 10634 10637 10640 10642 10644 10648 10650 10651 10654 10656 10658 10660 10662 10666 10668 10671 10674 10677 10679 10681 10683 10685 10686 10688 10689 10691 10693 10695 10696 10696 10697 10698 10699 10700 10701 10701 10702 10702 10702 10703 10704 10704 10704 10706 10706 10706 10705 10705 10707 10704 10698 10698 10697 10697 10700 10701 10704 10706 10707 10707 10707 10708 10709 10708 10709 10710
10641 10638 10635 10632 10628 10625 10622 10619 10617 10615 10614 10614 10616 10617 10619 10621 10623 10625 10627 10629 10632 10635 10637 10639 10642 10644 10645 10648 10650 10652 10654 10656 10658 10660 10662 10665 10667 10670 10672 10675 10677 10679 10681 10683 10684 10685 10687 10688 10690 10692 10693 10693 10694 10695 10696 10697 10697 10698 10698 10698 10698 10698 10700 10700 10700 10702 10702 10702 10701 10701 10703 10700 10695 10695 10694 10694 10696 10697 10699 10702 10702 10703 10703 10704 10705 10705 10706 10706
10643 10641 10639 10635 10632 10629 10627 10624 10622 10620 10619 10618 10619 10621 10623 10624 10626 10629 10631 10633 10635 10637 10639 10641 10643 10645 10646 10648 10650 10652 10654 10656 10658 10660 10662 10664 10667 10669 10671 10673 10675 10677 10679 10681 10682 10684 10684 10686 10687 10689 10690 10690 10691 10691 10692 10693 10693 10694 10694 10694 10694 10694 10696 10697 10697 10697 10698 10698 10698 10698 10699 10697 10692 10691 10691 10691 10693 10693 10695 10697 10698 10699 10700 10700 10701 10701 10702 10702
10645 10643 10641 10638 10635 10633 10630 10628 10626 10624 10623 10623 10623 10625 10626 10628 10630 10632 10634 10636 10638 10640 10641 10643 10644 10646 10648 10649 10650 10652 10655 10657 10658 10660 10662 10664 10666 10667 10670 10672 10673 10676 10677 10679 10680 10681 10682 10683 10684 10686 10686 10686 10687 10687 10689 10690 10689 10689 10689 10690 10690 10690 10691 10692 10693 10693 10694 10695 10694 10694 10696 10694 10689 10686 10687 10688 10689 10690 10692 10693 10694 10695 10696 10696 10696 10697 10697 10697
10646 10644 10643 10640 10638 10635 10633 10631 10629 10628 10628 10627 10627 10628 10630 10631 10632 10635 10636 10638 10640 10641 10642 10644 10645 10646 10648 10650 10651 10652 10654 10656 10658 10660 10661 10663 10664 10666 10668 10670 10672 10674 10675 10676 10678 10678 10679 10681 10682 10682 10683 10682 10683 10683 10684 10685 10685 10684 10683 10685 10686 10686 10686 10687 10688 10689 10690 10691 10690 10689 10692 10693 10687 10680 10681 10685 10686 10687 10688 10690 10691 10691 10691 10692 10692 10692 10692 10692
10647 10645 10644 10642 10640 10638 10636 10634 10633 10632 10632 10631 10631 10631 10633 10634 10635 10637 10638 10640 10641 10642 10643 10645 10646 10647 10648 10650 10651 10652 10653 10655 10657 10659 10660 10662 10663 10665 10666 10668 10670 10671 10673 10674 10675 10675 10677 10678 10678 10678 10678 10679 10678 10678 10679 10679 10679 10678 10677 10679 10680 10681 10682 10682 10683 10684 10686 10687 10686 10684 10686 10690 10686 10675 10675 10681 10682 10683 10685 10686 10687 10687 10688 10688 10688 10688 10688 10688
10647 10646 10645 10644 10642 10640 10638 10637 10636 10636 10635 10635 10634 10634 10635 10636 10637 10639 10640 10641 10642 10643 10644 10645 10646 10647 10649 10650 10651 10653 10654 10655 10656 10658 10659 10661 10662 10663 10665 10666 10668 10669 10670 10672 10672 10672 10673 10674 10674 10674 10674 10674 10673 10673 10674 10673 10673 10672 10671 10673 10674 10675 10676 10677 10679 10679 10681 10684 10682 10680 10681 10686 10684 10673 10670 10676 10678 10679 10681 10682 10683 10684 10684 10685 10685 10685 10684 10683
10647 10646 10646 10645 10644 10642 10641 10639 10638 10638 10638 10638 10638 10638 10638 10638 10639 10640 10640 10641 10641 10642 10644 10645 10646 10647 10649 10650 10651 10652 10653 10654 10655 10657 10658 10659 10660 10661 10663 10664 10665 10667 10668 10668 10668 10669 10670 10670 10670 10669 10669 10668 10668 10668 10667 10667 10667 10666 10666 10667 10668 10670 10671 10672 10674 10674 10677 10679 10677 10676 10677 10681 10681 10669 10666 10672 10673 10675 10677 10678 10680 10681 10681 10682 10681 10681 10680 10679
10647 10646 10645 10645 10644 10643 10642 10641 10640 10640 10639 10639 10639 10639 10639 10640 10640 10640 10641 10641 10641 10643 10644 10645 10646 10647 10648 10649 10650 10651 10652 10653 10654 10655 10656 10657 10658 10659 10661 10662 10663 10664 10664 10664 10665 10665 10665 10665 10665 10664 10663 10663 10662 10662 10662 10661 10661 10661 10661 10661 10662 10664 10665 10667 10669 10669 10672 10674 10672 10672 10673 10676 10675 10664 10661 10667 10668 10670 10673 10675 10677 10677 10677 10677 10678 10677 10676 10675
10646 10645 10644 10644 10644 10643 10642 10641 10641 10640 10640 10640 10640 10640 10640 10640 10640 10641 10641 10641 10642 10643 10643 10644 10645 10646 10647 10648 10648 10649 10650 10651 10652 10653 10654 10655 10656 10657 10658 10659 10660 10660 10661 10661 10661 10661 10660 10660 10659 10658 10658 10658 10657 10656 10656 10655 10655 10655 10655 10655 10656 10658 10660 10662 10663 10664 10667 10668 10668 10668 10668 10671 10669 10659 10656 10660 10663 10666 10669 10671 10673 10673 10673 10672 10673 10673 10672 10671
10645 10644 10643 10643 10642 10642 10642 10641 10640 10640 10640 10640 10640 10640 10639 10639 10640 10640 10640 10640 10641 10642 10642 10643 10644 10644 10645 10646 10647 10647 10648 10649 10650 10651 10651 10652 10653 10654 10655 10656 10656 10657 10657 10657 10656 10656 10655 10654 10654 10653 10653 10653 10652 10651 10650 10649 10649 10649 10649 10649 10651 10652 10654 10657 10658 10659 10661 10662 10663 10663 10664 10666 10662 10654 10651 10653 10656 10661 10664 10667 10669 10668 10667 10667 10667 10668 10667 10666
10643 10643 10642 10641 10641 10640 10640 10639 10639 10639 10639 10639 10639 10639 10639 10639 10639 10639 10639 10639 10639 10640 10640 10641 10642 10643 10644 10644 10645 10645 10645 10646 10647 10648 10648 10649 10650 10650 10651 10651 10652 10652 10652 10652 10651 10651 10650 10650 10649 10649 10648 10648 10648 10647 10645 10644 10644 10644 10644 10644 10645 10646 10649 10652 10653 10654 10655 10657 10658 10658 10659 10660 10655 10649 10647 10647 10651 10656 10659 10663 10664 10663 10662 10662 10663 10664 10663 10662
10641 10641 10640 10639 10639 10638 10637 10637 10637 10637 10637 10637 10637 10637 10637 10637 10637 10637 10638 10637 10638 10638 10638 10639 10640 10640 10641 10641 10642 10643 10643 10643 10644 10644 10645 10645 10646 10646 10647 10647 10647 10647 10647 10648 10648 10647 10646 10645 10646 10645 10645 10644 10644 10643 10642 10641 10641 10640 10640 10640 10641 10642 10645 10648 10649 10649 10650 10652 10652 10652 10653 10653 10650 10644 10640 10642 10647 10651 10655 10657 10657 10657 10657 10657 10658 10658 10658 10657
10639 10638 10638 10637 10637 10636 10635 10635 10634 10634 10634 10634 10634 10635 10635 10635 10635 10635 10635 10635 10636 10636 10636 10637 10637 10637 10638 10638 10639 10640 10640 10640 10641 10641 10642 10642 10642 10642 10642 10643 10643 10643 10644 10644 10644 10643 10642 10642 10642 10642 10641 10641 10640 10640 10639 10638 10638 10638 10638 10638 10639 10640 10641 10643 10644 10644 10645 10647 10647 10646 10646 10646 10644 10638 10633 10637 10644 10647 10650 10651 10651 10652 10652 10652 10653 10653 10653 10652
10637 10636 10635 10635 10634 10634 10633 10633 10632 10631 10631 10631 10631 10631 10631 10632 10632 10633 10633 10633 10633 10633 10634 10634 10634 10635 10635 10635 10636 10636 10636 10637 10637 10638 10638 10638 10638 10638 10639 10639 10639 10640 10640 10640 10640 10639 10639 10639 10639 10638 10638 10637 10637 10637 10636 10636 10636 10635 10635 10635 10636 10637 10637 10639 10640 10641 10642 10643 10642 10642 10641 10640 10638 10630 10627 10634 10641 10644 10646 10645 10645 10646 10646 10646 10647 10647 10647 10646
10634 10633 10632 10632 10632 10631 10631 10631 10630 10629 10628 10628 10628 10628 10628 10628 10629 10629 10630 10630 10630 10631 10631 10631 10631 10632 10632 10632 10632 10632 10633 10633 10633 10634 10634 10634 10634 10635 10635 10635 10636 10636 10636 10636 10636 10636 10636 10635 10635 10635 10634 10634 10634 10633 10633 10633 10633 10633 10632 10632 10633 10634 10634 10635 10636 10637 10637 10639 10639 10638 10638 10635 10627 10621 10624 10632 10638 10640 10640 10640 10640 10640 10640 10641 10641 10641 10641 10640
10630 10629 10629 10629 10629 10628 10628 10628 10627 10627 10626 10625 10625 10625 10625 10625 10625 10625 10626 10626 10627 10627 10628 10628 10629 10629 10629 10629 10629 10629 10630 10630 10630 10630 10630 10630 10631 10631 10631 10631 10632 10632 10632 10632 10632 10631 10632 10632 10631 10631 10631 10631 10630 10630 10630 10630 10630 10629 10629 10629 10630 10631 10632 10632 10633 10633 10632 10635 10635 10634 10634 10625 10614 10616 10625 10630 10633 10635 10634 10634 10634 10634 10635 10635 10635 10635 10635 10634
10626 10626 10626 10626 10626 10625 10625 10624 10624 10624 10623 10623 10622 10622 10621 10621 10621 10621 10622 10623 10623 10623 10624 10625 10625 10625 10626 10625 10626 10626 10626 10626 10627 10626 10626 10627 10628 10628 10628 10628 10628 10628 10628 10628 10628 10628 10628 10628 10627 10627 10627 10627 10627 10627 10627 10626 10627 10626 10626 10626 10627 10628 10629 10629 10629 10629 10630 10632 10631 10632 10629 10615 10607 10617 10625 10625 10626 10628 10628 10628 10628 10629 10630 10630 10630 10629 10628 10627
10623 10622 10622 10622 10622 10621 10621 10621 10620 10620 10620 10620 10620 10619 10618 10618 10618 10618 10618 10618 10619 10619 10620 10620 10621 10621 10621 10621 10622 10622 10622 10622 10622 10622 10622 10623 10624 10624 10623 10623 10624 10624 10624 10624 10624 10624 10624 10624 10623 10623 10623 10624 10624 10623 10623 10623 10623 10623 10623 10623 10624 10625 10626 10626 10627 10626 10627 10629 10628 10628 10624 10610 10606 10616 10619 10618 10619 10619 10621 10622 10621 10623 10625 10624 10625 10624 10623 10622
10619 10618 10618 10618 10618 10617 10618 10617 10616 10617 10616 10616 10617 10616 10615 10615 10614 10615 10614 10614 10615 10615 10615 10615 10616 10616 10617 10617 10618 10618 10618 10618 10618 10618 10618 10618 10619 10619 10619 10619 10620 10620 10620 10619 10620 10620 10620 10620 10619 10618 10619 10620 10619 10619 10619 10619 10619 10620 10620 10620 10620 10621 10622 10623 10624 10623 10623 10625 10623 10623 10619 10605 10603 10612 10612 10610 10612 10612 10614 10617 10616 10617 10618 10618 10619 10618 10617 10616
10615 10614 10614 10614 10614 10613 10613 10612 10612 10613 10612 10613 10613 10612 10612 10611 10611 10611 10611 10611 10611 10610 10610 10610 10611 10611 10612 10612 10613 10613 10613 10613 10613 10613 10613 10613 10614 10614 10615 10615 10615 10615 10615 10615 10614 10615 10616 10616 10614 10613 10613 10614 10615 10615 10614 10614 10615 10616 10616 10615 10616 10616 10617 10619 10620 10619 10619 10619 10614 10618 10619 10599 10589 10603 10610 10606 10605 10605 10608 10612 10613 10612 10611 10610 10611 10610 10609 10609
10610 10610 10610 10610 10610 10609 10609 10607 10608 10609 10609 10609 10609 10608 10608 10608 10607 10607 10608 10608 10607 10607 10606 10606 10606 10607 10607 10607 10607 10607 10608 10608 10607 10608 10608 10607 10607 10609 10610 10610 10610 10611 10610 10609 10609 10610 10611 10611 10609 10608 10608 10608 10609 10608 10609 10610 10611 10611 10610 10610 10610 10611 10612 10613 10614 10614 10615 10611 10605 10614 10622 10599 10577 10588 10602 10600 10599 10601 10602 10606 10608 10607 10605 10603 10603 10603 10602 10602
10604 10605 10605 10605 10605 10605 10604 10603 10604 10604 10604 10604 10605 10605 10604 10603 10603 10603 10604 10604 10603 10603 10603 10603 10603 10603 10602 10602 10602 10602 10603 10603 10602 10601 10601 10601 10601 10604 10605 10605 10605 10605 10604 10604 10604 10604 10606 10606 10604 10603 10603 10603 10601 10602 10604 10606 10606 10606 10605 10604 10605 10606 10606 10607 10608 10609 10608 10604 10603 10610 10613 10600 10582 10582 10589 10588 10591 10597 10598 10599 10600 10599 10598 10597 10596 10596 10595 10594
10599 10600 10599 10598 10599 10600 10599 10599 10599 10599 10599 10600 10601 10601 10600 10599 10599 10599 10599 10599 10599 10599 10599 10598 10598 10598 10598 10598 10598 10598 10598 10598 10597 10596 10594 10595 10597 10598 10599 10600 10599 10598 10598 10598 10598 10599 10601 10600 10598 10598 10599 10597 10595 10596 10599 10599 10599 10601 10600 10599 10600 10600 10600 10601 10602 10602 10598 10599 10605 10601 10595 10596 10591 10582 10580 10579 10583 10591 10593 10592 10592 10592 10592 10591 10590 10589 10588 10587
10594 10594 10592 10592 10594 10596 10595 10594 10593 10594 10595 10596 10597 10596 10594 10594 10594 10594 10595 10595 10595 10595 10595 10593 10593 10593 10593 10594 10595 10594 10593 10592 10592 10590 10589 10591 10593 10594 10594 10593 10592 10592 10592 10592 10593 10594 10595 10594 10592 10593 10593 10591 10589 10590 10592 10593 10593 10594 10594 10593 10594 10593 10594 10595 10593 10592 10590 10594 10599 10590 10584 10593 10591 10577 10573 10576 10579 10583 10585 10584 10585 10585 10585 10584 10583 10582 10581 10580
10587 10587 10585 10585 10589 10590 10589 10588 10588 10590 10591 10592 10592 10591 10589 10588 10589 10589 10590 10590 10590 10590 10590 10589 10588 10588 10590 10590 10591 10589 10586 10586 10587 10586 10587 10589 10589 10589 10588 10587 10587 10587 10587 10588 10588 10588 10589 10589 10586 10586 10588 10586 10584 10585 10586 10587 10588 10588 10587 10587 10587 10587 10587 10586 10585 10584 10583 10588 10591 10582 10580 10588 10583 10570 10570 10573 10574 10576 10576 10577 10578 10578 10577 10577 10576 10575 10574 10573
10580 10579 10578 10579 10582 10584 10583 10582 10583 10586 10586 10586 10588 10586 10583 10582 10583 10584 10585 10586 10586 10585 10586 10585 10582 10583 10586 10586 10585 10583 10581 10581 10583 10584 10584 10585 10584 10582 10582 10581 10583 10583 10582 10583 10583 10583 10585 10583 10580 10581 10583 10581 10580 10580 10582 10583 10584 10583 10582 10582 10581 10580 10578 10578 10579 10577 10577 10581 10582 10577 10578 10580 10571 10565 10569 10569 10567 10570 10571 10571 10571 10570 10569 10570 10570 10569 10567 10566
10571 10571 10570 10572 10576 10577 10577 10577 10578 10580 10581 10582 10584 10580 10576 10576 10576 10577 10579 10581 10581 10581 10582 10579 10576 10579 10582 10581 10580 10577 10574 10577 10580 10580 10580 10580 10578 10577 10577 10577 10577 10577 10578 10578 10578 10578 10579 10578 10576 10577 10579 10577 10575 10576 10578 10580 10580 10580 10580 10577 10573 10570 10571 10573 10573 10571 10571 10574 10573 10571 10576 10573 10560 10559 10567 10565 10561 10564 10566 10566 10565 10562 10562 10562 10562 10562 10561 10561
10563 10562 10562 10565 10569 10570 10571 10572 10573 10575 10576 10578 10577 10571 10569 10571 10569 10569 10574 10577 10575 10575 10575 10572 10572 10575 10577 10577 10575 10570 10569 10573 10576 10575 10575 10575 10574 10573 10574 10573 10572 10573 10573 10572 10573 10573 10572 10573 10572 10571 10575 10574 10569 10570 10574 10575 10577 10579 10576 10569 10563 10563 10566 10567 10565 10564 10564 10566 10567 10567 10569 10565 10555 10553 10559 10560 10558 10560 10561 10560 10558 10556 10555 10555 10554 10554 10555 10554
10554 10554 10555 10558 10562 10564 10566 10566 10566 10570 10571 10570 10567 10563 10563 10564 10562 10563 10569 10570 10567 10568 10569 10568 10568 10570 10571 10571 10567 10563 10565 10569 10570 10569 10570 10570 10569 10568 10569 10569 10568 10568 10567 10566 10568 10567 10567 10568 10567 10566 10571 10570 10564 10565 10569 10570 10576 10577 10568 10560 10559 10561 10561 10560 10559 10559 10557 10558 10561 10561 10560 10557 10550 10547 10551 10554 10555 10554 10555 10553 10552 10550 10548 10547 10548 10549 10548 10547